Flag for Switzerland Weather past 2 weeks in Nyon, Vaud, Switzerland

Now
59 °F

Passing clouds.


Feels Like: 60 °F
Forecast: 53 / 78 °F
Wind: 3 mph from North

Location: Geneva Cointrin Airport

Current Time: Jul 31, 2015 at 1:18:06 AM

Latest Report: Jul 31, 2015 at 12:50 AM


Visibility: N/A

Pressure: 30.04 "Hg

Humidity: 59%

Dew point: 45 °F

Location of NyonLocation

Historic Weather in Nyon — Graph

°F

Nyon temperature yesterday

Maximum temperature yesterday: 73 °F (at 6:50 PM)
Minimum temperature yesterday: 52 °F (at 5:50 AM)
Average temperature yesterday: 64 °F

Past Weeks' High & Low Weather Summary

 TemperatureHumidityPressure
High99 °F (Jul 16, 4:50 PM)100% (Jul 22, 8:50 PM)30.21 "Hg (Jul 22, 8:50 PM)
Low52 °F (Jul 30, 5:50 AM)13% (Jul 16, 6:50 PM)29.74 "Hg (Jul 24, 5:20 PM)
Average74 °F55%29.99 "Hg
* Reported Jul 15 11:20 PM — Jul 30 11:20 PM, Nyon, Weather by CustomWeather, © 2015

Note: Actual official high and low records may vary slightly from our data, if they occured in-between our weather recording intervals... More about our weather records

Advertising

Nyon weather history for previous 24 hours

 ConditionsComfort  
Time TempWeatherWind HumidityBarometerVisibility
11:20 PM
Thu, Jul 30
61 °FClear.1 mph52%30.04 "Hg10 mi
10:50 PM63 °FClear.2 mph49%30.04 "Hg10 mi
10:20 PM63 °FClear.3 mph49%30.04 "Hg10 mi
9:50 PM64 °FSunny.2 mph43%30.01 "Hg10 mi
9:20 PM66 °FSunny.3 mph40%30.01 "Hg10 mi
8:50 PM68 °FPassing clouds.6 mph38%30.01 "HgN/A
8:20 PM70 °FPartly sunny.5 mph35%30.01 "HgN/A
7:50 PM72 °FPartly sunny.7 mph33%29.98 "HgN/A
7:20 PM72 °FPartly sunny.7 mph33%29.98 "HgN/A
6:50 PM73 °FPartly sunny.6 mph31%29.98 "HgN/A
6:20 PM72 °FPartly sunny.6 mph31%29.98 "HgN/A
5:50 PM72 °FPartly sunny.7 mph33%29.98 "HgN/A
5:20 PM72 °FPartly sunny.8 mph31%30.01 "HgN/A
4:50 PM72 °FPartly sunny.7 mph33%30.01 "HgN/A
4:20 PM72 °FPartly sunny.8 mph33%30.01 "HgN/A
3:50 PM72 °FPartly sunny.9 mph33%30.01 "HgN/A
3:20 PM72 °FScattered clouds.8 mph33%30.01 "HgN/A
2:50 PM72 °FScattered clouds.9 mph33%30.01 "HgN/A
2:20 PM70 °FScattered clouds.10 mph35%30.01 "HgN/A
1:50 PM70 °FScattered clouds.7 mph33%30.01 "HgN/A
1:20 PM70 °FScattered clouds.8 mph35%30.01 "HgN/A
12:50 PM68 °FScattered clouds.8 mph38%30.04 "HgN/A
12:20 PM68 °FPassing clouds.9 mph38%30.04 "HgN/A
11:50 AM66 °FPassing clouds.9 mph37%30.04 "HgN/A
11:20 AM66 °FPassing clouds.9 mph37%30.04 "HgN/A
10:50 AM64 °FPassing clouds.9 mph43%30.04 "HgN/A
10:20 AM64 °FPassing clouds.9 mph46%30.04 "HgN/A
9:50 AM64 °FPassing clouds.8 mph49%30.04 "HgN/A
9:20 AM61 °FPassing clouds.7 mph59%30.04 "HgN/A
8:50 AM63 °FScattered clouds.3 mph52%30.04 "HgN/A
8:20 AM59 °FScattered clouds.No wind63%30.04 "HgN/A
7:50 AM57 °FScattered clouds.2 mph67%30.04 "HgN/A
7:20 AM55 °FPassing clouds.3 mph67%30.04 "HgN/A
6:50 AM52 °FPassing clouds.3 mph77%30.01 "HgN/A
6:20 AM52 °FPassing clouds.1 mph77%30.01 "HgN/A
5:50 AM52 °FPassing clouds.1 mph82%30.01 "HgN/A
5:20 AM54 °FPassing clouds.1 mph77%30.01 "HgN/A
4:50 AM54 °FPassing clouds.1 mph77%30.01 "HgN/A
4:20 AM55 °FPassing clouds.1 mph72%30.01 "HgN/A
3:50 AM55 °FPassing clouds.2 mph72%30.01 "HgN/A
2:20 AM59 °FPassing clouds.5 mph63%30.01 "HgN/A
1:50 AM61 °FPassing clouds.3 mph63%30.01 "HgN/A
1:20 AM61 °FPassing clouds.6 mph63%30.01 "HgN/A
Weather by CustomWeather, © 2015

See weather overviewHow to use our weather pages